Weather History for Charlevoix, MI

Change the Weather History Date:

Monday, February 25, 2013

  Actual Average Record
Temperature  
Mean Temperature 32 °F -  
Max Temperature 35 °F 45 °F 48 °F (2001)
Min Temperature 29 °F 28 °F -5 °F (2003)
Degree Days  
Heating Degree Days 33    
Moisture  
Dew Point 25 °F    
Average Humidity 78    
Maximum Humidity 92    
Minimum Humidity 63    
Precipitation  
Precipitation 0.00 in - - ()
Sea Level Pressure  
Sea Level Pressure 30.17 in    
Wind  
Wind Speed 2 mph (South)    
Max Wind Speed 10 mph    
Max Gust Speed -    
Visibility 10 miles    
Events      
Averages and records for this station are not official NWS values.
T = Trace of Precipitation, MM = Missing Value Source: NWS Daily Summary

Daily Weather History Graph

Daily Weather History Graph

Search for Another Location

Airport:

Trip Planner

Search our weather history database for the weather conditions in past years. The results will help you decide how hot, cold, wet, or windy it might be!

Date:

Astronomy

Feb. 25, 2013 Rise Set
Actual Time 7:25 AM EST 6:23 PM EST
Civil Twilight 6:56 AM EST 6:52 PM EST
Nautical Twilight 6:21 AM EST 7:27 PM EST
Astronomical Twilight 5:47 AM EST 8:01 PM EST
Moon 6:38 PM EST (2/25) 6:53 AM EST (2/25)
Length of Visible Light 11h 56m
Length of Day
10h 57m
Full, 100% of the Moon is Illuminated
Feb 25
Full
Feb 25
Full
Mar 4
Last Quarter
Mar 11
New
Mar 19
First Quarter

Hourly Weather History & Observations

Time (EST) Temp. Windchill Dew Point Humidity Pressure Visibility Wind Dir Wind Speed Gust Speed Precip Events Conditions
12:14 AM 30.6 °F - 25.5 °F 82% 30.15 in 10.0 mi Calm Calm - N/A   Overcast
12:34 AM 30.6 °F - 25.3 °F 81% 30.15 in 10.0 mi Calm Calm - N/A   Overcast
12:54 AM 30.2 °F - 25.3 °F 82% 30.15 in 10.0 mi Calm Calm - N/A   Overcast
1:14 AM 30.2 °F 26.7 °F 25.3 °F 82% 30.14 in 10.0 mi East 3.5 mph - N/A   Overcast
1:35 AM 30.0 °F - 25.7 °F 84% 30.15 in 10.0 mi Calm Calm - N/A   Overcast
1:54 AM 30.2 °F - 25.5 °F 83% 30.16 in 10.0 mi Calm Calm - N/A   Overcast
2:15 AM 29.7 °F - 25.7 °F 85% 30.17 in 10.0 mi Calm Calm - N/A   Overcast
2:34 AM 29.8 °F - 25.5 °F 84% 30.17 in 10.0 mi Calm Calm - N/A   Overcast
2:54 AM 29.7 °F - 25.5 °F 85% 30.17 in 10.0 mi Calm Calm - N/A   Overcast
3:15 AM 29.7 °F - 25.5 °F 85% 30.17 in 10.0 mi Calm Calm - N/A   Overcast
3:34 AM 29.7 °F - 25.7 °F 85% 30.17 in 10.0 mi Calm Calm - N/A   Overcast
3:55 AM 29.7 °F - 25.7 °F 85% 30.17 in 10.0 mi Calm Calm - N/A   Overcast
4:14 AM 29.5 °F - 25.7 °F 86% 30.17 in 10.0 mi Calm Calm - N/A   Overcast
4:34 AM 30.0 °F - 25.7 °F 84% 30.16 in 10.0 mi Calm Calm - N/A   Overcast
4:54 AM 29.7 °F 26.1 °F 25.7 °F 85% 30.16 in 10.0 mi ENE 3.5 mph - N/A   Overcast
5:14 AM 29.5 °F 25.9 °F 26.1 °F 87% 30.17 in 10.0 mi SSE 3.5 mph - N/A   Overcast
5:35 AM 29.5 °F 25.9 °F 26.2 °F 88% 30.17 in 10.0 mi SE 3.5 mph - N/A   Overcast
5:54 AM 29.7 °F - 26.1 °F 86% 30.17 in 10.0 mi Calm Calm - N/A   Overcast
6:15 AM 29.7 °F - 26.1 °F 86% 30.17 in 10.0 mi Calm Calm - N/A   Overcast
6:34 AM 29.5 °F 24.5 °F 26.2 °F 88% 30.17 in 10.0 mi SSE 4.6 mph - N/A   Overcast
6:54 AM 29.8 °F 24.9 °F 27.0 °F 89% 30.17 in 10.0 mi SSE 4.6 mph - N/A   Overcast
7:15 AM 29.8 °F 24.9 °F 27.3 °F 90% 30.17 in 10.0 mi SE 4.6 mph - N/A   Overcast
7:34 AM 30.0 °F 26.5 °F 27.5 °F 90% 30.17 in 10.0 mi ESE 3.5 mph - N/A   Overcast
7:55 AM 29.8 °F 26.3 °F 27.5 °F 91% 30.18 in 10.0 mi SE 3.5 mph - N/A   Overcast
8:14 AM 30.0 °F - 27.9 °F 92% 30.18 in 10.0 mi Calm Calm - N/A   Overcast
8:34 AM 30.0 °F - 28.0 °F 92% 30.19 in 10.0 mi Calm Calm - N/A   Overcast
8:55 AM 30.2 °F 26.7 °F 27.5 °F 90% 30.19 in 10.0 mi South 3.5 mph - N/A   Overcast
9:14 AM 30.4 °F 26.9 °F 27.3 °F 88% 30.20 in 10.0 mi South 3.5 mph - N/A   Overcast
9:34 AM 30.7 °F 27.3 °F 26.6 °F 85% 30.19 in 10.0 mi SSE 3.5 mph - N/A   Overcast
9:54 AM 30.9 °F 27.5 °F 26.4 °F 83% 30.20 in 10.0 mi SSE 3.5 mph - N/A   Overcast
10:14 AM 31.6 °F - 26.2 °F 80% 30.19 in 10.0 mi Calm Calm - N/A   Overcast
10:35 AM 32.0 °F 27.5 °F 25.5 °F 77% 30.19 in 10.0 mi SSE 4.6 mph - N/A   Overcast
10:54 AM 32.2 °F 27.7 °F 25.3 °F 76% 30.19 in 10.0 mi SE 4.6 mph - N/A   Overcast
11:15 AM 33.6 °F 28.4 °F 24.3 °F 69% 30.19 in 10.0 mi SSE 5.8 mph - N/A   Mostly Cloudy
11:35 AM 34.0 °F 28.0 °F 23.9 °F 67% 30.19 in 10.0 mi SW 6.9 mph - N/A   Mostly Cloudy
11:54 AM 33.4 °F 27.3 °F 24.3 °F 69% 30.19 in 10.0 mi SW 6.9 mph - N/A   Mostly Cloudy
12:15 PM 33.4 °F 27.3 °F 24.1 °F 69% 30.19 in 10.0 mi SSW 6.9 mph - N/A   Overcast
12:35 PM 33.6 °F 27.5 °F 23.9 °F 68% 30.19 in 10.0 mi SW 6.9 mph - N/A   Overcast
12:54 PM 33.8 °F 27.0 °F 24.6 °F 69% 30.19 in 10.0 mi SSW 8.1 mph - N/A   Overcast
1:15 PM 34.7 °F 26.9 °F 23.4 °F 63% 30.17 in 10.0 mi SSW 10.4 mph - N/A   Scattered Clouds
1:34 PM 35.1 °F 29.3 °F 23.5 °F 63% 30.17 in 10.0 mi SW 6.9 mph - N/A   Scattered Clouds
1:55 PM 34.3 °F 27.7 °F 22.8 °F 63% 30.17 in 10.0 mi SW 8.1 mph - N/A   Mostly Cloudy
2:15 PM 34.7 °F 28.1 °F 23.2 °F 63% 30.17 in 10.0 mi SSW 8.1 mph - N/A   Overcast
2:34 PM 34.3 °F 26.5 °F 23.5 °F 65% 30.17 in 10.0 mi WSW 10.4 mph - N/A   Overcast
2:55 PM 34.2 °F 28.2 °F 24.4 °F 68% 30.17 in 10.0 mi SW 6.9 mph - N/A   Overcast
3:15 PM 34.3 °F 30.2 °F 23.9 °F 66% 30.17 in 10.0 mi SW 4.6 mph - N/A   Overcast
3:34 PM 34.7 °F 29.6 °F 24.6 °F 67% 30.16 in 10.0 mi WSW 5.8 mph - N/A   Overcast
3:55 PM 34.7 °F 28.1 °F 24.4 °F 66% 30.16 in 10.0 mi WSW 8.1 mph - N/A   Overcast
4:15 PM 34.7 °F 30.6 °F 24.1 °F 65% 30.16 in 10.0 mi WSW 4.6 mph - N/A   Overcast
4:34 PM 34.9 °F 32.0 °F 24.3 °F 65% 30.16 in 10.0 mi South 3.5 mph - N/A   Overcast
4:55 PM 34.7 °F 29.6 °F 23.9 °F 65% 30.16 in 10.0 mi SW 5.8 mph - N/A   Overcast
5:14 PM 34.7 °F - 24.1 °F 65% 30.16 in 10.0 mi Calm Calm - N/A   Overcast
5:35 PM 34.3 °F - 24.1 °F 66% 30.16 in 10.0 mi Calm Calm - N/A   Overcast
5:54 PM 34.3 °F - 23.9 °F 66% 30.16 in 10.0 mi Calm Calm - N/A   Overcast
9:08 PM 32.0 °F - 26.4 °F 80% 30.16 in 10.0 mi Calm Calm - N/A   Overcast
9:15 PM 32.0 °F - 26.2 °F 79% 30.16 in 10.0 mi Calm Calm - N/A   Overcast
9:34 PM 32.0 °F - 26.2 °F 79% 30.16 in 10.0 mi Calm Calm - N/A   Overcast
9:54 PM 32.0 °F - 26.2 °F 79% 30.16 in 10.0 mi Calm Calm - N/A   Overcast
10:15 PM 32.0 °F 28.7 °F 25.2 °F 76% 30.15 in 10.0 mi ESE 3.5 mph - N/A   Overcast
10:34 PM 32.0 °F - 25.3 °F 76% 30.15 in 10.0 mi Calm Calm - N/A   Overcast
10:55 PM 32.0 °F - 25.0 °F 75% 30.14 in 10.0 mi Calm Calm - N/A   Overcast
11:14 PM 32.0 °F - 25.2 °F 76% 30.14 in 10.0 mi Calm Calm - N/A   Overcast
11:35 PM 31.5 °F - 25.5 °F 79% 30.14 in 10.0 mi Calm Calm - N/A   Overcast
11:55 PM 31.6 °F - 25.9 °F 79% 30.15 in 10.0 mi Calm Calm - N/A   Overcast